星链-30495 (STARLINK-30495 )

导读

STARLINK-30495是美国太空探索技术公司 SpaceX 星链星座的组网卫星,于2023年9月30日发射升空,属于星链互联网卫星群组。星链计划通过大规模低轨卫星组网,为全球提供高速低延迟宽带互联网服务,该卫星进一步扩充了星链星座的在轨规模,增强了星座的服务覆盖能力与网络稳定性,支撑全球天基互联网业务运行。

基本信息
目录编号:
57968
目录名称:
STARLINK-30495
国际标识:
2023-151E
轨道中心:
EARTH
卫星名称:
星链-30495
卫星全名:
星链-30495 (STARLINK-30495 )
卫星状态:
在轨 (已飞行989 天)
发射日期:
2023-09-30 UTC
国别 :
美国 (US)
星等 :
--
轨道信息
数据来源 国际轨道数据 AOE轨道数据
星历时间 2026-06-14T23:22:53+0800
10小时前
查看轨道信息
2026-06-15T00:00:00+0800
10小时前
查看轨道信息
半长轴 6861.198km 6861.19km
偏心率 0.0001073 0.000115
轨道倾角 43.001° 43.000°
近地点辐角 272.480° 254.640°
升交点赤经 148.490° 148.349°
平近点角 87.593° 247.384°
近地点 482.324km 482.263km
远地点 483.798km 483.843km
周期 94.267分钟 94.267分钟
每日圈数 15.275761 15.27579
详细信息
固有亮度:
5
最大亮度:
0.3
卫星平台:
Starlink v2.0 mini
覆盖范围:
全球
运营商:
太空探索技术公司
运营商所在国:
美国
制造商(研发单位):
太空探索技术公司
制造商所在国:
美国
使用方式:
暂无
卫星简介
星链(Starlink)计划是由太空探索技术公司(SpaceX)提出的一个巨型低轨卫星互联网星座项目,计划在2019年至2024年间在太空搭建由约1.2万颗卫星组成的“星链”网络,其中1584颗将部署在地球上空550千米处的近地轨道,并从2020年开始工作。该卫星仍在工作。
2D轨道图
3D轨道图
轨道高度分析图
轨道倾角分析图
轨道综合分析图
查看轨道综合分析图